Location: Cortada Guamacho
(10.5667°N, 67.0833°W)
Time: 21:30:49
(UTC+00:00)

SWIFT - Pass Details

Date: 03 July 2022
Orbit: 539 x 553 km, 20.6° (Epoch: 07 August)

Event Time Altitude Azimuth Distance (km) Brightness Sun altitude
Exits shadow 08:24:13 60° 6° (N) 610 2.6 -24.2°
Maximum altitude 08:24:22 61° 17° (NNE) 607 2.6 -24.1°
Drops below altitude 10° 08:28:27 10° 98° (E) 1,780 5.6 -23.3°
Sets 08:30:44 0° 102° (ESE) 2,672 6.5 -22.8°
